Temperature
15 15 16 16 16 16 16 16 16 16 16 16 16 16 16 16 16 16 16 16 16 16 16 15 15 15 15 15 15 15 15 15 15 15 15 15 15 15 15 15 15 14 15
15 15 15 16 16 16 16 16 16 16 16 16 16 16 16 16 16 16 16 16 16 16 15 15 15 15 15 15 15 15 15 15 15 15 15 15 15 15 15 15 15 15 15
15 15 15 15 16 16 16 16 16 16 16 16 16 16 16 16 16 16 16 15 15 15 15 15 15 15 15 15 15 15 15 15 15 15 15 14 14 15 15 15 15 15 15
15 15 15 15 15 16 16 16 16 16 16 16 16 16 15 15 15 15 15 15 15 15 15 15 15 15 15 15 15 15 15 15 15 15 14 14 14 14 15 15 15 15 15
14 15 15 15 15 15 15 15 16 16 16 15 15 15 15 15 15 15 15 15 15 15 15 15 15 15 15 15 15 15 15 15 15 14 14 14 14 14 15 15 15 15 15
14 14 15 15 15 15 15 15 15 15 15 15 15 15 15 15 15 15 15 15 15 15 15 15 15 15 15 15 15 15 15 15 14 14 13 13 14 14 14 14 14 14 14
14 14 14 15 15 15 15 15 15 15 15 15 15 15 15 15 15 15 15 15 15 15 15 15 15 15 15 15 15 15 14 15 14 13 13 13 14 14 14 14 14 14 14
14 14 14 14 14 15 15 15 15 15 15 15 15 15 15 15 15 15 15 15 15 15 15 15 15 14 14 14 14 14 14 14 14 13 13 13 14 14 14 14 14 14 14
14 14 14 14 14 14 14 15 15 15 15 15 15 15 15 15 15 15 15 15 15 15 15 15 15 14 14 14 14 14 14 14 13 13 13 13 13 14 14 14 14 14 14
13 14 14 14 14 14 14 14 14 14 14 14 14 15 14 14 14 14 14 14 14 14 14 14 14 14 14 14 14 14 14 14 13 13 13 13 13 13 13 13 14 14 14
13 13 14 14 14 14 14 14 14 14 14 14 14 14 14 14 14 14 14 14 14 14 14 14 14 14 14 14 13 13 13 13 12 13 13 13 13 13 13 13 13 13 13
13 13 13 13 13 14 14 14 14 14 14 14 14 14 14 14 14 14 14 14 14 14 14 14 14 14 13 13 13 13 13 12 12 12 12 13 13 13 13 13 13 13 13
12 13 13 13 13 13 13 13 13 13 13 13 13 13 13 13 13 13 13 13 13 13 13 13 13 13 13 13 13 12 12 12 12 12 12 12 13 12 12 13 13 13 12
12 12 12 13 13 13 13 13 13 13 13 13 13 13 13 13 13 13 13 13 13 13 13 13 13 13 13 12 12 12 12 12 12 12 12 12 12 12 12 12 12 12 12
12 12 12 12 12 12 13 13 13 13 13 13 13 13 13 12 12 13 13 13 12 12 12 12 12 12 12 12 12 12 12 11 11 11 11 12 12 12 12 12 12 12 12
11 11 12 12 12 12 12 12 12 12 12 12 12 12 12 12 12 12 12 12 12 12 12 12 12 12 12 12 11 11 11 11 11 11 11 11 11 11 11 11 11 11 11
11 11 11 12 12 12 12 12 12 12 12 12 12 12 12 12 12 12 12 12 11 11 11 11 12 11 11 11 11 11 11 11 11 11 11 11 11 11 11 11 11 11 11
10 11 11 11 11 11 11 11 11 11 11 11 11 11 11 11 11 11 11 11 11 11 11 11 11 11 11 11 11 10 10 10 10 10 10 10 10 10 10 10 10 10 11
10 10 11 11 11 11 11 11 11 11 11 11 11 11 11 11 11 11 11 11 11 11 11 11 11 10 10 10 10 10 10 9 9 10 10 10 10 10 10 10 10 10 10
10 10 10 10 10 10 10 10 10 10 10 10 10 10 10 10 10 10 10 10 10 10 10 10 10 10 10 10 10 9 9 9 9 9 9 9 9 9 9 9 9 9 9
10 10 10 10 10 10 10 10 10 10 10 10 10 10 10 10 10 10 10 10 10 10 10 10 10 10 10 9 9 8 8 9 9 9 9 9 9 9 9 9 9 9 9
10 10 10 10 10 10 10 10 10 9 9 10 10 10 10 10 10 10 10 10 9 9 9 9 9 9 9 9 8 8 8 8 8 8 8 8 8 8 8 8 8 8 8
9 10 10 10 10 10 9 9 9 9 9 9 9 9 9 9 9 9 9 9 9 9 9 9 9 9 8 8 8 8 7 8 7 7 8 8 8 8 8 8 8 8 7
9 9 9 9 9 9 9 9 9 9 9 9 9 9 9 9 9 9 9 9 9 9 9 9 9 8 8 8 8 8 7 7 7 7 7 7 7 7 7 7 7 7 7
9 9 9 9 9 9 9 9 9 9 9 9 9 9 9 9 9 9 8 8 8 8 8 8 8 8 8 8 7 7 7 7 6 6 6 6 6 6 6 6 6 6 6
9 9 9 9 9 9 9 9 9 9 9 8 8 8 8 8 8 8 8 8 8 8 8 8 8 8 7 7 7 7 7 6 6 5 5 5 5 5 6 6 6 6 6
Wind_Speed
6 7 8 9 11 10 10 10 10 10 10 10 10 10 9 9 8 7 7 7 7 6 7 8 8 8 8 8 8 7 6 6 5 6 6 5 5 5 5 4 2 4 7
7 8 10 10 11 11 11 11 10 10 10 10 9 9 9 8 8 8 7 7 7 6 6 7 7 8 8 8 7 6 6 6 5 5 4 4 4 3 3 3 4 5 4
7 8 11 11 11 11 11 11 11 11 10 9 9 8 8 8 7 7 7 6 6 6 6 6 7 7 7 6 6 5 5 5 4 2 2 2 4 3 2 2 2 2 2
7 7 10 12 12 11 11 11 11 10 9 9 8 7 7 7 7 7 7 6 6 6 6 6 6 6 6 5 5 5 4 4 2 2 2 1 2 4 1 1 0 0 1
7 7 10 12 12 11 11 11 10 10 9 9 8 8 8 7 7 6 6 6 6 6 6 5 5 5 4 4 4 4 4 4 1 3 0 0 0 2 0 1 1 2 2
7 8 10 10 11 11 11 11 10 10 9 9 9 8 7 7 6 7 6 6 6 5 5 5 4 4 4 4 3 3 3 2 3 1 1 1 0 2 2 2 3 3 3
7 8 10 10 11 11 11 10 10 9 9 8 8 8 7 7 6 6 6 6 5 5 4 4 4 3 4 4 3 3 3 3 3 2 2 2 1 1 3 3 4 4 4
7 8 9 10 10 11 10 10 10 9 9 8 8 8 7 7 7 6 6 6 5 5 4 4 4 4 3 3 3 3 3 3 3 2 2 2 2 3 4 4 5 5 6
7 7 7 9 9 10 10 10 10 9 9 8 8 8 7 7 7 7 6 6 5 5 4 4 4 3 3 3 3 3 2 3 4 2 3 2 3 4 4 4 5 5 6
6 6 6 7 7 7 8 9 10 9 8 8 8 7 7 7 7 6 6 5 5 5 4 4 3 3 3 2 2 2 2 4 2 2 3 3 4 4 5 5 5 5 5
5 5 5 6 6 6 6 8 8 8 8 7 7 6 5 4 4 4 5 5 5 4 4 4 3 2 1 1 1 1 3 2 2 2 3 5 5 5 5 5 4 4 4
6 5 4 4 5 5 5 5 5 6 5 5 4 4 3 3 3 3 5 4 4 3 2 3 2 1 2 0 1 2 2 2 2 2 3 5 5 5 5 5 4 4 3
6 5 4 4 4 4 4 4 4 4 4 4 4 3 3 3 2 2 2 2 2 2 2 1 1 1 2 2 2 2 2 2 2 2 4 6 6 6 5 5 4 4 4
6 5 4 4 4 4 4 3 3 3 3 3 3 3 2 2 2 2 2 2 2 2 2 2 2 2 2 1 1 1 1 2 2 2 4 7 7 7 6 5 5 4 4
5 5 4 4 4 3 4 3 3 3 3 3 3 3 3 2 2 2 3 2 2 2 2 2 2 2 1 2 1 1 1 2 2 2 2 6 7 7 6 6 6 5 5
5 4 4 4 4 4 3 3 3 3 3 3 3 3 3 2 2 2 3 3 3 3 3 2 2 1 1 1 1 1 1 2 2 2 2 3 6 7 7 6 6 6 6
5 4 4 4 4 4 4 3 3 3 3 3 3 3 3 3 3 2 2 3 3 3 3 2 2 1 1 1 1 2 2 2 2 2 3 3 3 6 7 7 7 8 8
5 5 4 3 4 4 4 3 3 3 3 3 3 3 3 3 3 2 2 3 3 3 3 2 2 2 1 1 1 1 1 2 2 2 3 3 3 4 5 8 8 9 9
5 5 4 4 4 5 4 3 3 3 3 3 2 3 3 3 3 2 2 3 3 3 2 2 2 2 2 2 1 1 1 1 2 2 3 4 5 5 4 6 7 9 10
4 5 4 4 4 4 4 3 2 2 2 2 2 2 2 2 2 2 2 2 3 2 2 2 2 2 1 2 1 1 1 1 1 2 3 3 4 5 5 5 5 6 9
4 4 4 4 4 3 3 2 2 1 1 1 2 2 2 2 2 2 1 2 2 2 2 2 1 1 1 2 1 1 1 1 1 2 2 3 4 4 5 5 5 5 6
5 5 4 4 4 3 2 2 1 1 1 1 1 1 2 2 2 1 2 1 2 1 2 2 1 1 1 1 2 2 2 3 1 1 1 2 3 3 4 5 6 6 6
5 5 4 4 4 3 3 3 3 2 1 1 1 0 0 1 1 1 1 1 1 1 1 2 1 1 1 1 1 2 2 2 2 1 0 1 2 2 3 4 5 6 6
6 5 5 5 4 4 3 3 3 2 2 1 1 1 1 1 0 0 0 1 1 1 1 2 2 2 2 2 1 1 2 2 3 2 2 1 2 2 2 2 3 4 6
6 5 5 5 5 4 4 3 3 3 2 1 1 1 2 1 1 1 1 1 1 1 1 1 2 2 2 2 2 2 2 2 3 3 4 3 2 2 2 2 2 3 5
5 5 5 6 5 5 5 5 4 4 3 2 3 2 2 2 2 2 2 2 2 2 2 2 2 2 2 3 2 3 3 3 3 3 4 5 4 3 3 2 2 2 4
Wind_Direction
153 149 143 143 137 128 125 128 127 125 122 122 119 117 116 113 110 105 98 92 90 84 82 82 82 82 78 75 74 74 72 74 80 80 81 80 76 74 70 58 40 89 73
148 149 145 143 138 130 124 119 121 119 118 120 119 117 115 110 107 101 96 90 87 84 82 82 79 78 74 71 70 71 69 69 79 86 96 116 102 82 75 57 28 58 70
140 144 149 139 136 131 125 119 115 114 113 114 116 115 113 109 107 103 99 92 90 85 83 80 77 73 71 69 66 66 68 67 70 88 210 153 114 100 74 67 62 60 67
134 139 143 135 132 128 123 119 117 115 113 112 111 111 109 105 103 100 94 86 83 81 78 75 74 72 70 65 60 58 59 63 56 275 238 95 111 106 85 34 18 2 9
127 130 126 132 130 127 123 119 116 114 112 108 106 103 101 101 99 97 93 85 78 76 73 72 69 68 64 57 51 49 50 47 338 263 324 342 95 102 269 302 309 280 285
124 122 121 126 130 127 124 120 116 113 109 105 102 100 96 94 93 92 89 83 78 76 74 72 69 66 58 49 44 43 41 20 286 313 298 284 289 82 283 284 281 278 271
125 119 123 121 128 126 121 117 114 112 109 105 101 100 100 93 90 86 85 82 78 76 71 68 66 59 50 43 41 39 30 344 314 319 316 298 322 338 287 280 276 277 270
125 121 123 117 121 121 119 116 114 112 109 106 102 99 98 96 89 85 81 78 74 70 64 61 56 52 48 44 39 35 22 329 304 306 299 303 351 300 283 279 272 272 268
121 122 126 126 126 121 116 117 115 112 110 106 101 97 94 92 89 85 79 73 69 64 58 54 48 42 39 43 38 29 7 317 299 314 315 315 345 302 290 285 283 274 271
106 111 123 127 129 135 128 118 116 111 107 102 98 97 99 99 95 89 82 70 67 59 54 51 43 35 32 41 39 28 331 278 301 315 316 353 354 315 305 301 296 286 279
101 100 112 124 127 127 131 127 125 116 107 109 102 98 109 107 100 98 75 69 65 56 53 48 38 30 8 112 79 348 277 298 325 327 336 2 336 319 315 308 306 305 296
120 106 103 113 123 126 121 130 131 127 120 113 106 107 100 92 84 81 95 77 66 54 57 42 25 14 280 280 134 248 298 322 324 334 2 5 337 327 323 321 318 318 322
128 114 104 109 115 118 118 121 119 123 122 113 97 97 93 83 76 69 76 78 62 43 25 27 341 357 339 345 323 313 327 326 332 346 11 13 348 343 341 336 328 326 321
130 119 108 105 107 106 106 111 116 112 108 97 92 79 77 69 55 50 46 33 25 15 0 351 343 355 345 342 328 323 325 322 334 352 17 22 3 358 358 358 353 350 347
135 124 114 110 109 107 103 101 106 101 101 101 93 82 69 64 56 48 43 34 24 13 1 351 342 352 352 358 354 345 348 347 352 355 17 33 17 11 11 9 7 0 351
137 129 122 114 113 118 112 105 93 87 90 95 84 75 68 63 55 51 46 32 22 8 357 342 350 341 356 358 356 359 356 359 7 6 9 30 32 25 22 18 14 9 3
143 136 130 125 122 124 115 102 94 88 78 81 82 83 76 65 57 51 42 31 19 4 359 354 4 347 12 7 358 5 7 9 15 12 13 12 22 35 30 22 20 21 18
144 138 130 127 130 125 115 105 96 89 79 70 76 78 70 64 56 51 43 31 14 5 3 5 2 353 3 350 353 5 13 23 22 24 25 21 15 18 35 36 34 31 29
147 139 137 136 135 125 114 111 98 86 77 68 66 70 70 63 54 51 42 28 14 13 11 6 6 355 352 356 349 351 4 17 28 36 44 37 30 25 27 46 44 38 33
151 144 142 141 137 129 124 122 120 99 85 71 63 65 70 68 61 51 44 30 15 17 15 10 9 10 350 345 325 339 23 37 35 33 36 43 41 37 35 33 33 36 36
158 155 155 153 149 148 146 147 144 124 103 81 58 50 56 61 61 53 33 33 20 17 5 358 350 352 6 350 295 269 202 115 64 54 40 42 46 42 40 34 29 24 26
173 168 167 171 162 166 166 146 131 125 137 88 78 48 32 46 52 46 35 31 19 359 357 355 350 298 332 349 306 280 259 210 166 66 31 36 37 41 38 33 33 28 23
186 181 181 182 174 176 165 142 137 147 163 169 180 199 345 22 50 41 21 16 18 359 349 336 314 284 276 269 302 290 283 283 297 215 280 19 17 17 23 24 28 25 20
193 187 187 185 183 183 178 179 183 194 202 207 211 210 211 223 214 22 298 321 339 323 319 329 308 280 270 262 260 293 297 307 282 279 233 257 339 336 352 4 11 17 14
190 188 190 189 188 188 189 195 201 210 217 215 237 227 219 210 215 226 249 262 269 277 288 297 292 272 259 257 263 267 260 262 254 267 276 271 282 287 308 322 343 360 4
184 188 193 194 197 197 196 204 212 217 216 228 241 242 234 230 222 220 231 244 251 256 260 263 263 258 258 250 250 245 255 259 261 261 274 281 287 281 277 282 309 341 351
Height
1529 1530 1532 1534 1535 1536 1537 1538 1539 1540 1540 1540 1541 1541 1541 1541 1541 1541 1541 1541 1541 1541 1540 1540 1540 1540 1539 1539 1539 1538 1538 1538 1538 1538 1537 1537 1537 1536 1536 1536 1536 1536 1535
1528 1530 1531 1534 1535 1536 1538 1539 1539 1540 1540 1541 1541 1541 1541 1541 1541 1541 1541 1541 1541 1541 1541 1540 1540 1540 1540 1539 1539 1539 1538 1538 1538 1538 1538 1537 1537 1537 1536 1536 1536 1536 1535
1527 1530 1531 1534 1535 1537 1538 1539 1539 1540 1541 1541 1541 1541 1541 1541 1541 1541 1541 1541 1541 1541 1541 1540 1540 1540 1539 1539 1539 1539 1538 1538 1538 1538 1538 1538 1538 1537 1537 1536 1536 1536 1535
1527 1529 1531 1533 1535 1536 1538 1539 1539 1540 1541 1541 1541 1541 1542 1542 1542 1541 1541 1541 1541 1541 1540 1540 1540 1539 1539 1539 1539 1538 1538 1538 1538 1538 1539 1539 1538 1537 1537 1536 1536 1536 1536
1527 1529 1531 1533 1535 1536 1538 1538 1539 1540 1540 1541 1541 1542 1542 1542 1541 1541 1541 1541 1541 1540 1540 1540 1539 1539 1539 1538 1538 1538 1537 1537 1537 1537 1538 1538 1537 1536 1536 1536 1536 1536 1535
1527 1529 1531 1533 1535 1536 1537 1538 1539 1540 1540 1541 1541 1541 1541 1541 1541 1541 1541 1541 1540 1540 1540 1539 1539 1539 1538 1538 1537 1537 1537 1537 1537 1538 1537 1537 1537 1536 1536 1536 1535 1535 1535
1527 1529 1531 1532 1534 1536 1537 1538 1539 1540 1540 1541 1541 1541 1541 1541 1541 1541 1540 1540 1540 1540 1539 1539 1538 1538 1538 1537 1537 1536 1536 1536 1536 1536 1536 1536 1536 1535 1535 1535 1535 1534 1534
1526 1528 1530 1532 1534 1536 1537 1538 1539 1539 1540 1540 1540 1541 1541 1541 1540 1540 1540 1540 1539 1539 1538 1538 1538 1537 1537 1536 1536 1535 1535 1535 1535 1535 1535 1535 1534 1534 1534 1533 1533 1533 1533
1526 1528 1530 1532 1533 1535 1536 1537 1538 1539 1539 1539 1540 1540 1540 1540 1540 1540 1539 1539 1538 1538 1538 1537 1537 1536 1536 1535 1535 1535 1534 1534 1535 1534 1534 1534 1533 1532 1532 1532 1532 1532 1532
1526 1527 1529 1531 1532 1534 1535 1537 1537 1538 1539 1539 1539 1539 1539 1539 1539 1539 1538 1538 1538 1537 1537 1536 1536 1535 1535 1534 1534 1534 1533 1533 1533 1533 1533 1532 1531 1531 1531 1530 1530 1530 1530
1525 1527 1528 1530 1532 1533 1534 1536 1537 1537 1538 1538 1538 1538 1538 1538 1538 1538 1538 1537 1537 1536 1536 1535 1535 1534 1534 1533 1533 1532 1532 1532 1532 1531 1531 1530 1530 1529 1529 1529 1529 1528 1528
1524 1526 1527 1529 1530 1532 1533 1534 1536 1536 1537 1537 1537 1537 1538 1537 1537 1537 1536 1536 1536 1535 1535 1534 1534 1533 1533 1532 1532 1531 1531 1531 1531 1530 1529 1528 1528 1528 1527 1527 1526 1526 1526
1524 1525 1527 1528 1529 1531 1532 1533 1534 1535 1536 1536 1536 1536 1536 1536 1536 1536 1536 1535 1535 1534 1534 1533 1533 1532 1532 1531 1531 1530 1530 1530 1529 1529 1528 1527 1526 1526 1525 1525 1524 1524 1524
1523 1524 1526 1527 1528 1529 1531 1532 1533 1534 1534 1535 1535 1535 1535 1535 1535 1535 1534 1534 1533 1533 1532 1532 1531 1531 1530 1530 1529 1529 1529 1528 1528 1527 1526 1525 1524 1524 1523 1523 1523 1522 1522
1522 1524 1525 1526 1527 1528 1530 1530 1531 1533 1533 1534 1534 1534 1534 1534 1534 1533 1533 1533 1532 1532 1531 1531 1530 1530 1529 1529 1528 1528 1527 1527 1526 1526 1525 1524 1523 1522 1522 1521 1521 1520 1520
1521 1523 1524 1525 1526 1528 1528 1529 1530 1531 1531 1532 1532 1533 1533 1533 1533 1532 1532 1531 1531 1531 1530 1530 1529 1528 1528 1527 1527 1527 1526 1525 1525 1524 1523 1522 1521 1520 1520 1520 1519 1519 1518
1520 1522 1523 1524 1525 1526 1527 1528 1528 1529 1530 1531 1531 1532 1532 1532 1532 1531 1531 1530 1530 1529 1529 1529 1528 1527 1526 1526 1526 1525 1525 1524 1523 1523 1522 1521 1520 1519 1518 1518 1517 1517 1516
1520 1521 1522 1523 1523 1525 1526 1526 1527 1528 1529 1529 1530 1530 1530 1530 1530 1530 1530 1529 1529 1528 1528 1527 1527 1526 1525 1524 1524 1524 1523 1522 1522 1521 1520 1520 1519 1518 1517 1516 1516 1515 1514
1519 1520 1521 1522 1523 1523 1524 1525 1526 1526 1527 1528 1528 1529 1529 1529 1529 1529 1528 1528 1527 1527 1526 1526 1525 1525 1524 1523 1522 1522 1521 1521 1520 1520 1519 1518 1517 1516 1516 1515 1514 1513 1512
1519 1520 1521 1521 1522 1522 1523 1524 1525 1525 1526 1526 1526 1527 1527 1527 1527 1527 1527 1527 1526 1525 1525 1525 1524 1523 1523 1522 1521 1520 1520 1519 1519 1518 1517 1517 1516 1515 1514 1513 1512 1511 1510
1517 1519 1520 1521 1521 1522 1523 1523 1524 1524 1524 1524 1525 1524 1525 1525 1525 1525 1525 1525 1525 1524 1524 1523 1523 1522 1521 1520 1520 1519 1518 1517 1517 1516 1516 1515 1514 1513 1512 1511 1510 1509 1508
1517 1517 1518 1519 1520 1521 1522 1522 1523 1523 1523 1523 1523 1523 1524 1524 1524 1524 1524 1523 1523 1522 1522 1521 1521 1520 1520 1519 1519 1518 1519 1518 1515 1515 1514 1513 1512 1511 1510 1509 1508 1507 1505
1515 1516 1517 1519 1519 1520 1520 1520 1521 1522 1521 1522 1522 1522 1522 1522 1522 1522 1522 1522 1521 1521 1520 1520 1519 1519 1518 1517 1517 1518 1518 1516 1515 1513 1512 1511 1510 1509 1508 1507 1506 1504 1503
1513 1515 1516 1517 1518 1518 1518 1519 1520 1520 1520 1520 1520 1521 1520 1520 1520 1520 1520 1520 1519 1519 1518 1517 1517 1517 1516 1515 1515 1514 1515 1514 1514 1512 1510 1509 1508 1507 1505 1504 1503 1502 1501
1512 1513 1515 1516 1517 1517 1517 1518 1518 1518 1519 1519 1519 1519 1519 1519 1519 1518 1518 1518 1517 1517 1516 1515 1515 1514 1514 1513 1513 1512 1512 1511 1511 1510 1509 1507 1506 1504 1503 1502 1501 1499 1498
1510 1511 1513 1514 1514 1515 1515 1516 1516 1517 1517 1517 1517 1517 1517 1517 1517 1516 1516 1515 1515 1514 1514 1513 1512 1512 1511 1510 1510 1509 1509 1509 1508 1507 1506 1505 1503 1502 1500 1499 1498 1497 1495